Temp
-4 -4 -3 -3 -3 -3 -3 -3 -3 -3 -2 -2 -2 -2 -2 -2 -3 -3 -3 -3 -4 -4 -5 -6 -7 -8 -8 -7 -6 -6 -4 -6 -6 -6 -5 -5 -5 -6 -6 -6 -6 -6 -7 -6 -6
-4 -4 -4 -3 -3 -3 -3 -3 -3 -3 -3 -3 -3 -3 -3 -3 -3 -3 -3 -3 -4 -5 -6 -7 -8 -9 -7 -7 -6 -5 -6 -5 -5 -5 -5 -5 -5 -7 -7 -5 -5 -6 -6 -6 -6
-4 -4 -4 -4 -4 -3 -3 -3 -3 -3 -3 -3 -3 -3 -3 -3 -3 -4 -3 -3 -4 -5 -6 -8 -8 -7 -7 -8 -7 -5 -6 -6 -5 -6 -6 -5 -5 -6 -6 -4 -5 -6 -6 -6 -6
-4 -4 -4 -4 -4 -4 -4 -3 -3 -3 -3 -3 -3 -3 -4 -3 -4 -4 -4 -4 -4 -5 -6 -9 -9 -7 -6 -7 -6 -6 -6 -5 -5 -5 -5 -5 -5 -5 -5 -4 -4 -5 -6 -6 -6
-4 -4 -4 -4 -4 -4 -4 -4 -4 -4 -3 -3 -3 -4 -4 -3 -4 -4 -4 -4 -4 -4 -5 -8 -8 -7 -7 -7 -5 -6 -7 -6 -6 -6 -5 -6 -5 -6 -5 -4 -4 -5 -5 -6 -6
-4 -4 -4 -4 -4 -4 -4 -4 -4 -4 -4 -4 -4 -4 -4 -4 -4 -4 -4 -5 -5 -4 -5 -7 -8 -7 -7 -7 -5 -6 -6 -5 -6 -6 -5 -6 -5 -6 -5 -4 -4 -4 -5 -5 -6
-4 -4 -4 -4 -4 -4 -4 -4 -4 -4 -4 -4 -4 -4 -4 -4 -4 -4 -4 -4 -5 -5 -5 -7 -8 -8 -7 -7 -7 -7 -6 -5 -6 -6 -6 -5 -5 -5 -5 -5 -5 -5 -5 -5 -5
-5 -4 -4 -4 -4 -4 -4 -4 -4 -4 -4 -4 -4 -4 -4 -4 -4 -4 -4 -4 -4 -6 -6 -6 -7 -7 -8 -8 -7 -6 -6 -5 -5 -6 -5 -6 -5 -5 -5 -5 -5 -5 -5 -4 -5
-5 -5 -5 -5 -5 -4 -4 -4 -4 -4 -4 -4 -4 -4 -4 -4 -4 -3 -4 -4 -5 -6 -6 -6 -7 -7 -8 -7 -6 -6 -7 -7 -6 -6 -6 -5 -5 -5 -6 -5 -5 -5 -5 -5 -6
-5 -5 -5 -5 -5 -5 -5 -4 -4 -4 -4 -4 -4 -4 -4 -4 -4 -4 -4 -4 -5 -5 -5 -6 -7 -7 -8 -7 -6 -7 -7 -6 -6 -6 -6 -6 -6 -5 -6 -6 -6 -5 -5 -5 -6
-6 -5 -5 -5 -5 -5 -5 -5 -4 -4 -4 -4 -4 -5 -4 -4 -4 -4 -4 -4 -4 -5 -5 -7 -7 -8 -8 -7 -7 -6 -7 -6 -7 -7 -6 -6 -6 -6 -6 -6 -6 -6 -7 -6 -6
-6 -6 -6 -6 -5 -5 -5 -4 -4 -4 -5 -5 -5 -5 -4 -5 -5 -4 -4 -4 -4 -5 -5 -5 -7 -8 -8 -7 -6 -7 -6 -7 -7 -6 -6 -7 -7 -6 -6 -6 -6 -7 -7 -7 -6
-6 -6 -6 -6 -6 -5 -5 -4 -5 -5 -5 -5 -5 -5 -4 -5 -4 -4 -4 -4 -5 -5 -5 -5 -8 -8 -9 -7 -6 -7 -7 -7 -8 -7 -7 -7 -6 -7 -7 -6 -6 -7 -7 -7 -7
-7 -7 -7 -7 -6 -6 -5 -5 -5 -5 -5 -5 -5 -5 -5 -5 -5 -4 -4 -4 -4 -5 -5 -6 -8 -8 -8 -7 -6 -7 -7 -6 -6 -6 -7 -7 -6 -7 -7 -7 -6 -6 -6 -7 -7
-7 -7 -7 -7 -7 -6 -6 -6 -6 -6 -5 -6 -5 -5 -5 -5 -5 -4 -5 -4 -5 -5 -5 -6 -8 -8 -7 -7 -7 -7 -8 -7 -7 -6 -6 -7 -7 -5 -6 -7 -6 -6 -6 -5 -7
-8 -8 -8 -8 -7 -7 -7 -6 -6 -6 -6 -6 -6 -6 -5 -5 -5 -5 -4 -4 -5 -4 -5 -5 -5 -6 -8 -6 -7 -7 -8 -8 -7 -7 -6 -7 -6 -6 -6 -5 -5 -5 -5 -6 -6
-8 -8 -8 -8 -8 -8 -7 -7 -7 -7 -7 -7 -7 -6 -6 -5 -5 -5 -5 -5 -5 -4 -5 -5 -5 -7 -7 -6 -5 -7 -8 -8 -8 -7 -7 -6 -6 -6 -6 -5 -5 -6 -6 -7 -6
-9 -9 -9 -8 -9 -8 -8 -8 -7 -8 -8 -8 -7 -6 -6 -6 -5 -5 -5 -5 -5 -5 -6 -5 -6 -7 -6 -6 -7 -7 -8 -8 -8 -8 -8 -7 -7 -7 -6 -5 -6 -6 -6 -6 -6
-10 -10 -9 -9 -9 -9 -9 -8 -9 -9 -8 -8 -8 -7 -7 -6 -6 -6 -5 -5 -5 -5 -5 -5 -5 -7 -7 -7 -7 -8 -8 -8 -8 -8 -8 -7 -7 -6 -6 -6 -6 -6 -6 -6 -7
-10 -10 -10 -10 -9 -9 -9 -9 -9 -10 -10 -9 -9 -8 -7 -7 -7 -6 -6 -6 -6 -5 -6 -5 -6 -7 -8 -8 -7 -8 -8 -8 -8 -8 -8 -8 -7 -7 -7 -6 -6 -6 -6 -7 -7
-11 -11 -11 -10 -10 -9 -9 -9 -10 -11 -11 -10 -10 -8 -8 -8 -7 -6 -6 -6 -6 -6 -6 -6 -6 -8 -8 -8 -8 -8 -8 -8 -8 -8 -8 -7 -7 -7 -7 -7 -6 -6 -6 -7 -7
-12 -12 -11 -11 -10 -10 -10 -10 -11 -11 -11 -11 -10 -9 -8 -7 -8 -8 -7 -6 -7 -7 -6 -6 -6 -7 -7 -8 -8 -8 -8 -8 -9 -8 -8 -8 -7 -7 -7 -7 -6 -6 -6 -6 -8
-12 -12 -11 -11 -11 -11 -10 -11 -11 -11 -11 -11 -10 -9 -9 -7 -9 -9 -8 -8 -7 -7 -7 -7 -6 -8 -8 -8 -8 -8 -8 -8 -8 -7 -8 -8 -7 -8 -8 -7 -7 -6 -5 -6 -6
-12 -12 -11 -11 -11 -11 -11 -11 -11 -11 -10 -11 -10 -10 -9 -8 -9 -9 -8 -7 -7 -7 -7 -8 -8 -7 -8 -8 -8 -8 -8 -8 -8 -8 -8 -8 -8 -8 -8 -8 -7 -7 -6 -6 -6
-12 -12 -12 -11 -11 -11 -11 -11 -11 -11 -11 -11 -10 -10 -10 -9 -10 -9 -9 -8 -9 -9 -8 -8 -8 -8 -8 -8 -8 -8 -8 -8 -8 -8 -8 -8 -8 -8 -8 -8 -7 -7 -7 -7 -7
-12 -12 -12 -12 -11 -11 -11 -11 -12 -11 -11 -10 -10 -10 -10 -9 -10 -9 -9 -9 -9 -9 -9 -9 -9 -9 -8 -8 -8 -8 -8 -8 -8 -8 -8 -8 -8 -8 -8 -8 -8 -7 -7 -7 -7
-12 -12 -12 -12 -12 -12 -12 -11 -12 -12 -12 -11 -10 -10 -10 -9 -9 -9 -9 -9 -9 -9 -9 -9 -9 -8 -7 -7 -8 -8 -8 -8 -7 -8 -8 -8 -8 -8 -8 -8 -8 -7 -7 -8 -7
Height
5887 5889 5891 5892 5894 5895 5896 5898 5899 5900 5901 5902 5902 5902 5902 5903 5903 5902 5902 5903 5904 5903 5903 5903 5902 5901 5900 5899 5900 5901 5898 5895 5898 5896 5892 5890 5890 5889 5891 5891 5891 5890 5890 5888 5890
5884 5886 5888 5890 5891 5892 5893 5895 5897 5899 5899 5900 5902 5902 5902 5902 5902 5902 5904 5903 5903 5902 5902 5902 5903 5899 5899 5897 5900 5900 5900 5899 5898 5896 5893 5892 5891 5890 5890 5893 5892 5892 5891 5889 5890
5881 5883 5885 5886 5888 5890 5891 5893 5894 5896 5898 5900 5901 5901 5901 5901 5902 5902 5902 5903 5902 5901 5901 5903 5901 5901 5899 5897 5902 5900 5902 5901 5898 5894 5894 5893 5890 5888 5888 5889 5892 5893 5892 5892 5889
5878 5880 5882 5884 5885 5887 5888 5890 5892 5894 5896 5897 5899 5899 5900 5900 5903 5901 5902 5902 5901 5900 5900 5901 5900 5897 5901 5901 5902 5900 5902 5898 5895 5898 5897 5893 5890 5887 5887 5890 5891 5894 5893 5893 5892
5874 5876 5879 5881 5883 5884 5886 5887 5889 5891 5892 5894 5896 5897 5898 5899 5900 5900 5902 5901 5901 5900 5900 5900 5898 5897 5902 5904 5905 5903 5902 5899 5899 5901 5898 5894 5892 5889 5889 5889 5890 5893 5893 5893 5893
5870 5872 5874 5877 5879 5881 5883 5885 5886 5888 5890 5892 5894 5895 5895 5898 5898 5899 5900 5899 5899 5900 5900 5898 5897 5897 5903 5905 5905 5903 5902 5901 5900 5900 5897 5897 5896 5892 5891 5890 5888 5891 5892 5891 5893
5864 5867 5870 5872 5875 5877 5879 5882 5884 5885 5887 5889 5891 5892 5893 5896 5896 5897 5898 5898 5898 5900 5899 5897 5894 5900 5904 5905 5902 5903 5904 5902 5902 5899 5897 5898 5898 5895 5894 5893 5892 5892 5891 5891 5893
5859 5862 5865 5867 5870 5873 5875 5877 5880 5882 5884 5886 5888 5889 5890 5893 5893 5896 5896 5896 5896 5898 5899 5896 5895 5902 5903 5903 5904 5905 5905 5903 5903 5900 5899 5900 5900 5899 5897 5896 5896 5895 5894 5894 5896
5854 5857 5859 5862 5865 5868 5870 5873 5875 5878 5880 5883 5886 5886 5889 5890 5891 5894 5893 5894 5894 5895 5897 5896 5896 5900 5904 5904 5905 5904 5903 5901 5900 5900 5901 5903 5904 5901 5899 5898 5899 5897 5897 5896 5895
5848 5851 5854 5857 5860 5862 5865 5868 5871 5874 5877 5880 5882 5885 5887 5890 5891 5892 5892 5892 5892 5892 5894 5896 5895 5898 5903 5905 5905 5906 5904 5904 5902 5903 5904 5904 5904 5902 5901 5900 5901 5899 5897 5897 5896
5842 5845 5848 5851 5854 5857 5861 5864 5867 5870 5873 5876 5878 5878 5881 5886 5888 5889 5890 5890 5890 5892 5893 5894 5895 5898 5901 5904 5904 5903 5905 5906 5904 5903 5905 5905 5902 5901 5902 5902 5902 5901 5901 5901 5900
5836 5839 5842 5845 5848 5851 5854 5857 5863 5868 5871 5873 5875 5876 5878 5880 5881 5884 5887 5888 5889 5890 5891 5892 5895 5898 5899 5904 5903 5902 5904 5906 5907 5906 5906 5906 5905 5903 5901 5901 5902 5902 5902 5900 5901
5830 5832 5835 5838 5841 5845 5849 5854 5858 5862 5866 5868 5871 5871 5874 5878 5878 5880 5883 5885 5886 5888 5889 5890 5896 5895 5898 5903 5902 5905 5903 5903 5906 5907 5907 5907 5908 5905 5903 5901 5900 5901 5902 5900 5900
5822 5825 5828 5832 5837 5839 5844 5848 5852 5856 5860 5863 5866 5864 5872 5872 5874 5876 5879 5882 5883 5886 5887 5890 5892 5895 5896 5901 5903 5904 5903 5902 5903 5903 5904 5906 5909 5907 5905 5904 5903 5901 5901 5900 5899
5816 5818 5822 5826 5829 5834 5837 5841 5846 5851 5855 5858 5861 5862 5867 5870 5869 5874 5875 5878 5881 5883 5886 5887 5888 5891 5894 5899 5901 5903 5902 5902 5903 5903 5903 5905 5907 5908 5906 5904 5902 5901 5901 5900 5899
5811 5813 5815 5819 5823 5828 5830 5835 5841 5847 5849 5852 5854 5856 5861 5862 5866 5868 5871 5874 5877 5878 5882 5882 5885 5888 5892 5895 5897 5900 5900 5900 5900 5900 5901 5902 5904 5905 5903 5902 5900 5900 5901 5900 5898
5806 5808 5810 5813 5818 5821 5825 5830 5836 5840 5844 5844 5845 5850 5854 5858 5862 5864 5867 5871 5874 5877 5879 5879 5882 5887 5889 5892 5894 5896 5899 5899 5898 5899 5899 5900 5901 5902 5900 5897 5894 5900 5897 5898 5898
5801 5803 5805 5809 5811 5815 5819 5825 5831 5834 5834 5837 5842 5847 5848 5852 5857 5860 5863 5867 5870 5874 5876 5876 5880 5886 5888 5891 5893 5894 5896 5897 5898 5898 5898 5897 5897 5898 5897 5893 5889 5894 5896 5897 5897
5796 5798 5800 5803 5805 5809 5814 5819 5826 5825 5828 5834 5840 5843 5845 5847 5851 5855 5859 5863 5865 5869 5873 5874 5877 5883 5886 5887 5889 5890 5892 5896 5896 5897 5896 5896 5897 5898 5897 5894 5890 5889 5890 5892 5892
5791 5793 5795 5797 5800 5804 5809 5815 5819 5821 5824 5829 5835 5837 5839 5841 5847 5850 5853 5859 5862 5864 5868 5871 5875 5879 5884 5886 5887 5889 5891 5891 5894 5894 5894 5894 5895 5895 5896 5895 5890 5888 5888 5888 5888
5784 5786 5788 5791 5794 5798 5803 5810 5813 5815 5819 5823 5828 5831 5834 5838 5842 5845 5849 5853 5855 5860 5863 5866 5870 5876 5879 5881 5885 5886 5887 5888 5890 5891 5891 5892 5893 5893 5893 5892 5892 5891 5888 5885 5886
5777 5779 5783 5786 5790 5792 5797 5801 5805 5809 5815 5818 5821 5827 5830 5834 5839 5845 5848 5851 5854 5857 5861 5864 5866 5869 5873 5879 5881 5882 5884 5884 5884 5887 5888 5889 5891 5891 5891 5889 5891 5891 5886 5884 5884
5774 5775 5779 5782 5785 5788 5793 5797 5802 5807 5811 5816 5819 5823 5827 5830 5836 5841 5843 5845 5846 5850 5855 5858 5862 5864 5868 5873 5876 5879 5880 5882 5882 5883 5883 5884 5887 5888 5888 5886 5887 5886 5885 5883 5883
5772 5773 5775 5778 5780 5784 5790 5795 5799 5804 5809 5812 5817 5821 5825 5828 5832 5837 5840 5842 5844 5848 5852 5854 5857 5861 5865 5870 5873 5873 5875 5877 5877 5878 5879 5879 5882 5884 5884 5883 5884 5885 5884 5883 5881
5769 5771 5772 5774 5777 5781 5785 5791 5794 5799 5804 5808 5814 5816 5820 5825 5829 5833 5837 5838 5842 5844 5847 5849 5853 5856 5860 5864 5865 5868 5871 5872 5873 5874 5875 5876 5877 5880 5882 5880 5881 5882 5881 5878 5876
5766 5767 5768 5769 5772 5776 5781 5786 5790 5794 5799 5802 5809 5815 5820 5821 5824 5830 5833 5837 5838 5841 5843 5846 5849 5851 5852 5857 5858 5861 5865 5868 5869 5870 5871 5872 5873 5874 5876 5877 5878 5879 5877 5874 5871
5762 5764 5764 5767 5769 5772 5776 5781 5786 5789 5793 5797 5804 5811 5815 5820 5824 5827 5829 5832 5835 5838 5839 5841 5843 5845 5847 5850 5851 5853 5860 5864 5865 5865 5866 5867 5870 5871 5872 5872 5874 5874 5873 5870 5868
Wind_Speed
16 16 16 16 15 14 13 12 11 10 10 10 9 8 7 6 7 10 12 12 11 11 8 4 2 3 2 2 4 7 11 10 12 12 10 12 10 6 6 4 7 8 5 1 6
18 17 16 17 16 16 15 14 12 10 9 8 7 8 6 6 8 8 8 10 13 12 10 7 5 4 4 7 3 6 7 11 11 12 13 8 8 1 3 5 7 11 7 2 5
22 19 18 17 16 17 16 17 16 13 12 11 9 7 6 7 6 8 8 8 14 15 15 9 11 8 9 8 7 9 10 13 10 11 11 7 7 9 1 4 8 11 11 5 4
24 23 21 19 18 17 17 18 17 16 15 13 10 8 7 8 6 6 6 8 15 18 17 15 15 19 8 7 2 7 5 14 9 3 9 10 10 14 10 7 6 8 10 8 6
25 24 23 22 20 18 17 17 18 18 16 14 12 11 10 7 4 3 4 7 12 18 18 20 22 19 8 2 2 8 12 11 8 9 12 11 11 10 5 6 5 6 8 8 6
26 26 25 24 23 21 19 18 17 18 18 17 15 14 13 8 8 6 6 7 10 15 17 22 23 18 12 5 1 8 12 7 6 10 10 7 6 7 6 5 3 4 7 10 8
27 27 26 26 25 23 22 20 19 19 18 18 18 16 16 11 10 9 9 10 6 12 19 22 25 16 10 3 8 3 6 7 9 11 9 6 6 11 9 7 5 6 9 12 12
28 28 28 28 27 26 24 23 21 20 19 18 18 19 20 13 14 11 11 10 8 6 17 22 24 12 9 5 5 4 2 8 11 7 9 6 6 12 14 10 7 9 11 14 14
29 29 29 28 28 28 26 25 23 21 20 18 18 21 19 19 17 13 12 11 11 10 15 18 20 11 13 6 2 6 11 14 8 5 2 4 7 10 12 12 9 8 9 10 11
30 30 30 30 29 29 29 27 25 24 21 17 18 20 20 19 16 15 13 12 13 15 13 15 20 13 16 11 2 6 7 6 6 7 6 7 7 8 9 8 6 4 3 5 9
28 31 31 32 32 31 31 30 28 26 22 19 19 22 20 17 17 17 14 15 15 13 11 18 20 14 8 11 5 4 1 5 8 11 6 14 16 9 7 4 2 3 5 5 8
29 29 30 33 33 33 33 32 28 25 22 22 19 21 20 19 19 20 16 14 14 9 13 16 18 13 16 10 2 1 3 12 5 5 4 8 16 7 4 0 4 2 3 2 3
32 32 31 31 34 35 35 32 30 27 25 24 22 24 23 21 21 20 18 15 15 12 13 12 19 24 21 10 2 9 13 15 8 1 2 4 3 7 10 6 10 7 5 4 1
28 29 31 33 32 35 36 35 31 29 27 27 25 30 20 23 23 23 19 17 16 13 13 13 26 28 25 17 10 11 11 13 13 11 6 2 5 2 4 8 10 8 8 10 8
27 29 31 31 34 33 35 36 33 30 28 28 26 27 21 22 27 22 24 21 17 17 15 19 28 32 25 17 13 4 10 10 7 10 7 8 4 9 3 7 12 15 14 10 12
22 24 28 30 31 33 34 35 33 29 28 26 27 28 26 26 25 25 25 23 23 23 18 21 25 29 25 20 12 5 12 7 6 10 7 8 10 8 11 15 12 13 20 17 13
20 23 25 27 29 31 33 33 32 29 26 27 29 31 28 29 24 25 24 24 23 22 20 23 23 25 28 25 17 12 9 8 11 12 13 12 11 10 17 17 13 11 11 13 12
19 21 25 26 27 29 31 33 30 26 30 33 30 29 30 29 25 23 24 24 23 21 22 25 26 27 26 22 12 10 8 11 10 13 18 18 19 18 12 18 15 7 14 6 4
21 22 23 24 27 29 30 31 25 29 32 32 26 26 29 26 24 25 23 23 24 22 24 26 24 25 26 24 19 14 8 7 11 7 15 18 22 21 7 14 14 7 11 11 10
24 24 22 24 25 28 29 28 27 32 30 31 28 30 34 29 25 25 25 21 22 21 24 23 21 24 25 27 21 13 10 11 8 13 13 10 11 5 3 11 5 7 9 12 3
23 28 25 24 25 27 28 27 32 34 30 29 32 30 29 28 25 28 26 24 23 22 22 24 23 29 27 28 19 15 15 11 7 11 13 11 8 10 11 14 5 11 9 2 3
18 26 26 24 26 27 28 31 37 38 34 33 35 33 31 33 26 18 23 22 14 16 19 25 25 28 28 24 24 24 20 18 23 22 19 17 9 10 15 14 11 10 5 6 5
15 21 24 23 23 24 26 30 39 41 39 36 35 35 33 33 23 20 22 23 25 23 22 21 24 29 29 33 30 20 21 18 19 21 25 20 18 13 14 22 13 8 5 7 8
14 18 21 22 24 23 23 29 41 46 44 39 36 33 32 31 26 24 24 25 25 23 23 23 22 27 34 31 30 27 27 25 23 23 17 20 19 15 18 21 18 8 8 12 13
12 14 17 19 21 22 24 32 45 48 47 44 41 38 37 34 28 25 24 25 25 24 24 24 23 22 27 32 36 34 31 30 26 22 22 18 21 21 13 22 19 20 15 14 15
10 16 19 20 20 21 23 34 47 49 51 52 45 39 37 35 33 26 23 24 28 24 22 23 20 24 29 32 39 39 35 32 32 29 27 20 18 14 19 18 17 14 21 23 24
15 15 20 20 18 19 23 34 46 48 47 52 52 46 40 37 36 34 30 28 30 29 29 29 30 28 29 30 43 44 39 31 28 30 28 26 17 19 18 18 14 15 19 18 21
Wind_Direction
234 232 233 235 235 232 230 225 221 222 227 230 229 231 229 230 225 221 226 238 232 238 235 240 63 40 353 287 222 338 318 21 349 352 20 12 19 57 62 81 125 106 113 95 104
234 235 237 236 236 238 238 237 235 231 234 234 223 223 226 232 240 248 257 255 235 218 209 188 151 216 231 262 258 302 273 10 17 6 356 6 25 47 327 98 113 121 132 129 108
234 237 238 239 240 238 239 239 239 237 237 232 221 227 231 242 240 234 237 239 233 216 199 172 214 217 240 258 268 291 319 355 9 12 357 357 43 46 171 68 117 132 135 149 118
232 234 236 237 239 241 241 241 242 239 236 234 226 226 237 250 250 254 236 232 231 223 201 196 207 225 220 236 210 314 334 13 31 328 8 15 23 29 20 23 95 110 131 145 150
230 232 233 235 237 237 240 242 243 242 239 237 232 232 243 257 274 260 234 230 243 237 221 201 212 229 203 305 168 6 21 14 44 12 24 28 28 34 23 17 44 100 125 135 149
229 229 230 232 235 237 238 238 240 240 240 238 236 235 243 250 248 261 245 223 246 251 235 211 221 236 214 257 16 40 1 357 8 11 37 31 44 63 71 80 73 118 124 124 132
230 229 227 230 232 234 235 237 237 236 236 237 236 238 243 248 253 253 257 258 242 256 234 227 224 219 251 197 60 60 28 15 4 348 15 58 68 68 62 73 113 129 121 115 117
230 231 230 227 228 230 232 235 237 238 239 237 234 236 239 233 241 244 252 249 247 255 248 238 239 231 217 103 71 89 277 322 1 38 64 66 74 71 69 55 72 96 104 110 109
232 232 232 232 229 229 230 232 235 236 239 240 238 238 237 229 240 242 249 241 243 233 238 247 246 225 209 174 3 24 10 27 53 110 346 79 71 74 74 62 49 64 84 91 96
233 232 232 233 232 231 230 230 232 233 234 235 237 241 237 235 249 246 247 243 240 244 242 222 230 233 216 221 299 21 29 72 84 104 107 89 58 57 69 56 45 45 66 49 54
234 234 232 231 232 232 231 230 228 229 229 229 225 228 232 239 235 235 239 250 238 244 246 205 227 226 199 214 248 320 1 164 132 132 75 64 42 106 106 91 53 38 51 52 66
239 237 235 233 230 231 232 230 230 232 231 230 230 234 230 226 225 226 227 245 252 237 232 223 215 193 225 214 220 161 221 179 205 214 119 88 47 50 314 197 135 44 337 59 336
241 239 236 234 234 231 230 232 232 231 228 227 225 236 225 227 228 222 223 227 240 226 237 231 187 207 228 193 225 88 138 176 193 244 240 171 56 10 13 312 237 232 230 224 241
238 236 235 233 233 232 230 230 230 230 226 231 218 231 225 225 229 222 223 219 231 224 223 186 197 210 226 197 197 152 153 167 180 186 196 283 358 54 358 13 249 243 229 239 235
240 238 235 233 232 231 230 230 229 227 225 227 224 230 226 227 228 222 222 219 221 226 228 200 200 209 214 217 231 215 147 204 185 229 241 276 297 244 303 339 313 280 294 279 247
238 237 235 232 229 229 229 228 228 227 224 226 222 224 217 221 223 227 225 220 217 224 213 215 219 213 211 206 182 172 162 204 231 244 255 273 291 277 301 319 303 305 280 291 252
239 236 234 233 230 228 228 226 225 224 215 214 214 217 215 221 219 222 226 225 226 231 219 231 227 207 216 226 219 183 193 235 272 275 278 278 301 335 336 341 319 347 324 279 225
240 238 235 232 230 228 225 225 221 217 215 213 218 221 215 213 215 218 223 225 223 227 213 230 221 210 225 238 215 210 244 272 282 281 284 281 293 311 356 8 348 346 38 33 9
242 238 235 229 227 227 224 221 212 206 214 211 208 212 217 213 213 214 216 221 222 224 229 228 226 214 230 229 223 217 229 293 286 277 275 279 278 294 283 2 344 292 353 342 334
241 238 232 228 225 224 221 211 196 194 202 206 203 203 210 203 207 209 209 213 223 221 226 219 217 216 218 226 226 224 225 235 270 268 267 286 283 266 357 345 332 352 324 309 302
245 229 228 225 222 221 215 201 184 189 189 189 191 198 196 197 204 208 203 201 213 215 216 215 205 212 219 221 211 219 218 229 269 292 311 263 270 308 328 351 31 343 317 280 215
245 227 223 225 221 216 210 196 184 190 187 185 194 200 196 200 196 208 210 202 199 227 219 217 212 208 206 206 205 226 230 230 248 259 267 281 259 299 314 317 315 348 10 28 219
243 231 221 224 229 223 213 199 189 194 193 193 197 202 206 201 204 185 194 184 195 202 190 211 208 200 204 206 210 224 240 248 269 263 254 264 266 287 304 311 319 358 359 10 339
236 232 225 224 227 220 213 198 195 197 199 202 200 201 207 214 204 208 201 197 200 205 204 206 218 208 211 211 211 226 232 243 248 246 270 272 267 263 284 303 310 335 318 303 298
233 218 233 232 230 222 207 196 197 201 205 205 202 200 204 210 205 213 214 188 194 198 202 213 226 228 220 212 215 222 231 243 242 244 263 275 263 270 295 281 290 310 309 311 305
230 216 217 224 228 222 209 197 199 205 209 211 209 206 212 206 206 199 210 203 204 206 210 219 228 240 244 216 215 219 229 230 236 242 244 258 270 235 263 277 299 296 300 304 311
227 227 228 219 213 215 208 201 198 208 213 218 218 217 218 231 219 206 216 217 217 212 219 223 231 240 245 228 220 224 227 233 248 233 239 246 247 251 276 277 299 301 316 325 308